Tracking 29892 objects as of 21-Nov-2024
HD Live streaming from Space Station
objects crossing your sky now

USA 188

Track USA 188 now!
USA 188 is classified as:


NORAD ID: 29241
Int'l Code: 2006-024B
Perigee: 35,813.9 km
Apogee: 36,546.0 km
Inclination: 10.3 °
Period: 1,455.9 minutes
Semi major axis: 42550 km
RCS: Unknown
Launch date: June 21, 2006
Source: United States (US)
Launch site: AIR FORCE EASTERN TEST RANGE (AFETR)
Your satellite tracking list
Your tracking list is empty




NASA's NSSDC Master Catalog

Two Line Element Set (TLE):
1 29241U 06024B   24137.18458378 0.00000000  00000-0  00000-0 0    04
2 29241  10.2910  44.3916 0086030 266.9282  93.0718  0.98909832    08
Source of the keplerian elements: McCants